Lid_Strength_Index
4 6 7 7 6 6 7 8 8 7 5 6 7 6 6 5 4 5 4 4 4 4 2 2 1 1 1 1 1 0 1 0 0 0 1 1 1 0 -1 -1 -2 -2 -2 -2
6 7 6 6 6 7 7 8 8 6 6 6 7 7 5 5 5 5 4 4 4 3 3 2 2 1 1 1 1 1 1 0 0 0 0 0 0 0 -0 -0 -1 -2 -2 -2
7 7 5 6 6 7 7 8 8 8 7 6 7 8 7 5 5 4 4 4 3 3 3 3 2 1 1 1 1 1 -0 -0 -0 -0 0 0 0 0 1 1 0 -0 -1 -1
6 5 6 6 7 6 9 6 7 7 8 10 6 12 8 7 6 5 5 4 4 3 3 2 2 1 1 1 -0 -1 -1 -1 -1 -1 0 1 2 2 1 1 0 -0 -0 -0
7 7 7 7 7 6 8 6 7 7 8 9 9 10 8 7 8 7 5 4 4 3 3 3 2 1 1 1 0 -1 -2 -1 -1 -1 -0 1 1 1 1 0 1 0 -0 -1
6 5 6 6 5 5 5 7 7 7 8 12 9 10 10 9 7 6 5 4 4 3 3 2 2 1 1 1 1 0 0 -0 -1 -1 -1 0 1 1 1 1 1 1 0 0
7 7 6 6 7 5 6 8 12 12 12 13 9 10 9 7 6 5 5 4 4 3 3 3 2 2 2 1 1 1 0 1 -0 -0 -0 -0 0 0 1 1 1 1 1 1
9 11 7 6 7 8 8 8 11 15 14 12 9 11 10 6 5 4 4 4 3 3 3 3 2 2 2 1 1 1 1 1 0 0 0 -0 -0 1 1 0 1 1 1 1
10 10 7 7 6 6 8 9 8 10 10 12 10 10 7 6 6 5 5 4 4 4 3 3 2 2 2 1 1 1 1 1 1 0 0 0 0 0 0 -0 -0 0 0 0
7 11 6 7 6 6 7 6 10 11 15 15 11 11 11 8 7 5 5 5 4 4 3 3 2 2 2 1 1 1 1 1 1 0 0 0 0 0 -0 -0 1 0 0 0
6 8 9 7 7 8 8 8 8 9 10 14 15 12 7 7 6 6 5 4 4 4 3 3 2 2 1 1 1 1 1 1 1 1 0 0 1 0 0 0 0 0 -0 0
6 8 11 9 7 6 7 8 8 11 12 11 12 12 6 5 5 5 5 4 4 3 3 3 3 2 2 2 1 1 1 1 1 1 1 2 1 1 2 2 2 2 2 2
7 9 13 11 8 7 8 7 7 8 9 12 15 13 5 5 5 4 5 4 4 3 3 3 2 2 2 2 2 1 2 3 3 3 3 3 3 3 3 3 2 2 3 3
4 8 10 13 10 8 9 8 7 8 13 11 11 10 7 6 6 5 5 4 4 4 3 3 3 2 2 2 3 3 3 3 3 3 4 4 4 4 4 4 3 3 3 3
6 10 8 8 7 7 8 8 8 8 8 11 9 9 7 6 6 5 4 4 5 4 4 3 3 3 3 3 3 3 3 3 4 5 6 6 5 5 4 4 4 4 4 4
5 10 8 9 7 7 9 8 7 8 8 8 8 8 5 5 4 5 5 5 5 4 4 3 3 3 4 4 4 4 4 6 6 6 6 6 5 5 5 5 5 5 5 4
7 8 10 12 8 8 11 8 8 8 7 7 10 7 5 6 5 5 5 5 5 4 4 3 3 4 4 4 4 6 6 6 6 6 6 5 5 5 5 5 5 5 5 4
7 8 9 12 10 15 8 6 6 7 7 6 6 6 5 5 5 4 4 4 4 4 3 4 4 4 3 4 5 6 6 6 6 6 6 5 5 5 5 5 5 5 5 5
5 8 10 13 13 10 8 8 8 10 9 6 7 6 5 5 4 5 3 3 3 3 3 4 4 3 3 5 6 7 7 6 7 6 6 5 5 5 5 5 5 5 5 5
6 6 10 11 14 15 8 7 5 6 12 6 5 6 6 5 10 7 4 3 3 3 3 3 3 4 5 5 6 7 7 7 7 6 5 5 4 5 5 5 5 4 4 5
10 10 11 11 13 10 6 6 5 12 12 5 5 5 5 7 6 4 3 3 2 3 3 3 4 5 5 5 7 7 7 7 6 5 5 4 4 4 4 4 4 4 5 4
10 12 12 11 12 14 5 6 11 7 5 4 4 4 5 4 4 3 3 3 3 4 4 4 5 5 5 6 7 7 7 6 6 5 5 4 4 4 4 5 4 4 5 6
10 8 10 9 9 6 4 5 4 3 4 4 4 4 4 4 4 3 3 3 3 4 5 5 5 6 6 6 6 7 7 6 6 5 5 5 4 4 4 4 5 7 7 7
6 5 7 7 6 5 4 3 3 3 3 3 3 3 3 4 3 3 3 3 4 4 5 5 6 7 7 6 6 6 6 5 6 5 5 4 4 5 5 5 6 7 8 9
6 5 6 7 5 5 4 4 3 3 3 3 2 3 3 3 4 3 3 3 4 5 5 6 6 8 8 7 7 6 5 5 6 5 4 4 5 6 7 7 7 8 8 10
5 6 8 9 5 5 5 3 3 3 3 3 3 4 3 3 3 3 3 3 4 5 6 6 8 8 8 7 7 6 5 5 6 6 5 5 6 7 7 7 7 8 11 11